Location: Emblem
(62.4273°N, 6.4710°E)
Time: 16:09:19
(UTC+01:00)

Vanguard 3 - All Passes

Search period start: 29 January 2023 00:00
Search period end: 08 February 2023 00:00
Orbit: 509 x 3252 km, 33.4° (Epoch: 29 January)

Date Brightness Start Highest point End Pass type
(mag) Time Alt. Az. Time Alt. Az. Time Alt. Az.
29 Jan - 01:39:23 10° WSW 01:49:40 18° SSW 02:00:19 10° S night (unlit)
29 Jan - 20:06:15 10° SSE 20:11:58 13° SE 20:18:30 10° ESE visible
29 Jan - 22:12:18 10° SSW 22:22:28 21° S 22:34:36 10° SE visible
30 Jan - 00:22:56 10° SW 00:33:54 21° SSW 00:46:02 10° SSE visible
30 Jan - 02:39:04 10° SW 02:44:55 12° SW 02:50:52 10° SSW night (unlit)
30 Jan - 20:58:50 10° SSW 21:07:03 18° SSE 21:17:00 10° SE visible
30 Jan - 23:07:35 10° SW 23:18:06 21° S 23:30:26 10° SE visible
31 Jan - 01:20:17 10° WSW 01:29:27 16° SSW 01:39:15 10° S night (unlit)
31 Jan - 19:47:09 10° SSE 19:52:06 13° SE 19:57:45 10° SE visible
31 Jan - 21:53:12 10° SSW 22:02:27 20° S 22:13:48 10° SE visible
01 Feb - 00:03:51 10° SW 00:13:45 19° SSW 00:25:04 10° SSE visible
01 Feb - 02:21:44 10° SW 02:24:43 11° SW 02:27:44 10° SSW night (unlit)
01 Feb - 20:39:51 10° SSW 20:47:10 17° SSE 20:56:09 10° SE visible
01 Feb - 22:48:35 10° SW 22:58:04 20° S 23:09:28 10° SSE visible
02 Feb - 01:01:33 10° SW 01:09:17 15° SSW 01:17:42 10° S visible
02 Feb - 19:28:25 10° SSE 19:32:20 12° SSE 19:36:44 10° SE visible
02 Feb - 21:34:19 10° SSW 21:42:33 19° S 21:52:49 10° SE visible
02 Feb - 23:45:01 10° SW 23:53:42 17° SSW 00:03:46 10° SSE visible
03 Feb - 20:21:05 10° S 20:27:23 15° SSE 20:35:07 10° SE visible
03 Feb - 22:29:49 10° SW 22:38:07 18° S 22:48:14 10° SSE visible
04 Feb - 00:43:26 10° SW 00:49:12 13° SSW 00:55:27 10° S visible
04 Feb - 19:10:16 10° SSE 19:12:39 11° SSE 19:15:14 10° SE visible
04 Feb - 21:15:39 10° SSW 21:22:45 17° S 21:31:36 10° SE visible
04 Feb - 23:26:32 10° SW 23:33:43 15° SSW 23:42:03 10° S visible
05 Feb - 20:02:35 10° S 20:07:43 14° SSE 20:13:55 10° SE visible
05 Feb - 22:11:20 10° SW 22:18:17 16° S 22:26:43 10° SSE visible
06 Feb - 00:27:13 10° SW 00:29:11 10° SSW 00:31:14 10° SSW visible
06 Feb - 20:57:14 10° SSW 21:03:03 15° S 21:10:11 10° SSE visible
06 Feb - 23:08:39 10° SW 23:13:50 13° SSW 23:19:44 10° S visible
07 Feb - 19:44:30 10° S 19:48:09 12° SSE 19:52:24 10° SE visible
07 Feb - 21:53:15 10° SSW 21:58:33 14° S 22:04:49 10° SSE visible
